locationName,lineName,date,time,countIn,countOut
�n����ʂ�,3_1_1,2022/4/1,0:00,2,4
�n����ʂ�,3_1_1,2022/4/1,1:00,0,2
�n����ʂ�,3_1_1,2022/4/1,2:00,1,3
�n����ʂ�,3_1_1,2022/4/1,3:00,0,5
�n����ʂ�,3_1_1,2022/4/1,4:00,5,1
�n����ʂ�,3_1_1,2022/4/1,5:00,8,11
�n����ʂ�,3_1_1,2022/4/1,6:00,30,32
�n����ʂ�,3_1_1,2022/4/1,7:00,57,127
�n����ʂ�,3_1_1,2022/4/1,8:00,85,230
�n����ʂ�,3_1_1,2022/4/1,9:00,133,125
�n����ʂ�,3_1_1,2022/4/1,10:00,158,218
�n����ʂ�,3_1_1,2022/4/1,11:00,274,216
�n����ʂ�,3_1_1,2022/4/1,12:00,319,331
�n����ʂ�,3_1_1,2022/4/1,13:00,281,270
�n����ʂ�,3_1_1,2022/4/1,14:00,346,249
�n����ʂ�,3_1_1,2022/4/1,15:00,289,177
�n����ʂ�,3_1_1,2022/4/1,16:00,288,170
�n����ʂ�,3_1_1,2022/4/1,17:00,251,194
�n����ʂ�,3_1_1,2022/4/1,18:00,163,146
�n����ʂ�,3_1_1,2022/4/1,19:00,67,63
�n����ʂ�,3_1_1,2022/4/1,20:00,34,35
�n����ʂ�,3_1_1,2022/4/1,21:00,26,17
�n����ʂ�,3_1_1,2022/4/1,22:00,10,6
�n����ʂ�,3_1_1,2022/4/1,23:00,8,6
�n����ʂ�,3_1_1,2022/4/2,0:00,1,1
�n����ʂ�,3_1_1,2022/4/2,1:00,2,0
�n����ʂ�,3_1_1,2022/4/2,2:00,2,4
�n����ʂ�,3_1_1,2022/4/2,3:00,2,7
�n����ʂ�,3_1_1,2022/4/2,4:00,4,1
�n����ʂ�,3_1_1,2022/4/2,5:00,15,13
�n����ʂ�,3_1_1,2022/4/2,6:00,29,30
�n����ʂ�,3_1_1,2022/4/2,7:00,42,52
�n����ʂ�,3_1_1,2022/4/2,8:00,83,125
�n����ʂ�,3_1_1,2022/4/2,9:00,130,178
�n����ʂ�,3_1_1,2022/4/2,10:00,225,339
�n����ʂ�,3_1_1,2022/4/2,11:00,338,370
�n����ʂ�,3_1_1,2022/4/2,12:00,381,496
�n����ʂ�,3_1_1,2022/4/2,13:00,416,414
�n����ʂ�,3_1_1,2022/4/2,14:00,456,402
�n����ʂ�,3_1_1,2022/4/2,15:00,530,404
�n����ʂ�,3_1_1,2022/4/2,16:00,463,348
�n����ʂ�,3_1_1,2022/4/2,17:00,390,289
�n����ʂ�,3_1_1,2022/4/2,18:00,204,155
�n����ʂ�,3_1_1,2022/4/2,19:00,112,78
�n����ʂ�,3_1_1,2022/4/2,20:00,72,36
�n����ʂ�,3_1_1,2022/4/2,21:00,15,24
�n����ʂ�,3_1_1,2022/4/2,22:00,22,18
�n����ʂ�,3_1_1,2022/4/2,23:00,8,9
�n����ʂ�,3_1_1,2022/4/3,0:00,3,4
�n����ʂ�,3_1_1,2022/4/3,1:00,3,1
�n����ʂ�,3_1_1,2022/4/3,2:00,2,6
�n����ʂ�,3_1_1,2022/4/3,3:00,1,5
�n����ʂ�,3_1_1,2022/4/3,4:00,0,2
�n����ʂ�,3_1_1,2022/4/3,5:00,12,14
�n����ʂ�,3_1_1,2022/4/3,6:00,17,26
�n����ʂ�,3_1_1,2022/4/3,7:00,43,32
�n����ʂ�,3_1_1,2022/4/3,8:00,64,83
�n����ʂ�,3_1_1,2022/4/3,9:00,111,156
�n����ʂ�,3_1_1,2022/4/3,10:00,255,288
�n����ʂ�,3_1_1,2022/4/3,11:00,339,430
�n����ʂ�,3_1_1,2022/4/3,12:00,444,578
�n����ʂ�,3_1_1,2022/4/3,13:00,532,394
�n����ʂ�,3_1_1,2022/4/3,14:00,590,423
�n����ʂ�,3_1_1,2022/4/3,15:00,602,442
�n����ʂ�,3_1_1,2022/4/3,16:00,520,373
�n����ʂ�,3_1_1,2022/4/3,17:00,417,248
�n����ʂ�,3_1_1,2022/4/3,18:00,193,134
�n����ʂ�,3_1_1,2022/4/3,19:00,60,55
�n����ʂ�,3_1_1,2022/4/3,20:00,33,26
�n����ʂ�,3_1_1,2022/4/3,21:00,17,19
�n����ʂ�,3_1_1,2022/4/3,22:00,16,2
�n����ʂ�,3_1_1,2022/4/3,23:00,3,2
�n����ʂ�,3_1_1,2022/4/4,0:00,2,1
�n����ʂ�,3_1_1,2022/4/4,1:00,0,2
�n����ʂ�,3_1_1,2022/4/4,2:00,0,3
�n����ʂ�,3_1_1,2022/4/4,3:00,1,4
�n����ʂ�,3_1_1,2022/4/4,4:00,7,3
�n����ʂ�,3_1_1,2022/4/4,5:00,15,18
�n����ʂ�,3_1_1,2022/4/4,6:00,33,36
�n����ʂ�,3_1_1,2022/4/4,7:00,54,105
�n����ʂ�,3_1_1,2022/4/4,8:00,81,244
�n����ʂ�,3_1_1,2022/4/4,9:00,131,123
�n����ʂ�,3_1_1,2022/4/4,10:00,174,205
�n����ʂ�,3_1_1,2022/4/4,11:00,249,255
�n����ʂ�,3_1_1,2022/4/4,12:00,305,361
�n����ʂ�,3_1_1,2022/4/4,13:00,264,264
�n����ʂ�,3_1_1,2022/4/4,14:00,344,208
�n����ʂ�,3_1_1,2022/4/4,15:00,323,207
�n����ʂ�,3_1_1,2022/4/4,16:00,259,186
�n����ʂ�,3_1_1,2022/4/4,17:00,280,128
�n����ʂ�,3_1_1,2022/4/4,18:00,180,110
�n����ʂ�,3_1_1,2022/4/4,19:00,75,49
�n����ʂ�,3_1_1,2022/4/4,20:00,53,30
�n����ʂ�,3_1_1,2022/4/4,21:00,14,11
�n����ʂ�,3_1_1,2022/4/4,22:00,4,9
�n����ʂ�,3_1_1,2022/4/4,23:00,4,4
�n����ʂ�,3_1_1,2022/4/5,0:00,1,0
�n����ʂ�,3_1_1,2022/4/5,1:00,4,2
�n����ʂ�,3_1_1,2022/4/5,2:00,1,6
�n����ʂ�,3_1_1,2022/4/5,3:00,1,7
�n����ʂ�,3_1_1,2022/4/5,4:00,0,5
�n����ʂ�,3_1_1,2022/4/5,5:00,21,16
�n����ʂ�,3_1_1,2022/4/5,6:00,35,34
�n����ʂ�,3_1_1,2022/4/5,7:00,57,97
�n����ʂ�,3_1_1,2022/4/5,8:00,83,211
�n����ʂ�,3_1_1,2022/4/5,9:00,123,106
�n����ʂ�,3_1_1,2022/4/5,10:00,167,221
�n����ʂ�,3_1_1,2022/4/5,11:00,212,220
�n����ʂ�,3_1_1,2022/4/5,12:00,246,287
�n����ʂ�,3_1_1,2022/4/5,13:00,281,220
�n����ʂ�,3_1_1,2022/4/5,14:00,341,224
�n����ʂ�,3_1_1,2022/4/5,15:00,302,185
�n����ʂ�,3_1_1,2022/4/5,16:00,213,158
�n����ʂ�,3_1_1,2022/4/5,17:00,253,144
�n����ʂ�,3_1_1,2022/4/5,18:00,143,74
�n����ʂ�,3_1_1,2022/4/5,19:00,49,50
�n����ʂ�,3_1_1,2022/4/5,20:00,31,30
�n����ʂ�,3_1_1,2022/4/5,21:00,14,15
�n����ʂ�,3_1_1,2022/4/5,22:00,8,4
�n����ʂ�,3_1_1,2022/4/5,23:00,2,4
�n����ʂ�,3_1_1,2022/4/6,0:00,0,0
�n����ʂ�,3_1_1,2022/4/6,1:00,1,0
�n����ʂ�,3_1_1,2022/4/6,2:00,2,5
�n����ʂ�,3_1_1,2022/4/6,3:00,0,6
�n����ʂ�,3_1_1,2022/4/6,4:00,5,5
�n����ʂ�,3_1_1,2022/4/6,5:00,13,13
�n����ʂ�,3_1_1,2022/4/6,6:00,31,58
�n����ʂ�,3_1_1,2022/4/6,7:00,64,297
�n����ʂ�,3_1_1,2022/4/6,8:00,95,324
�n����ʂ�,3_1_1,2022/4/6,9:00,144,94
�n����ʂ�,3_1_1,2022/4/6,10:00,139,178
�n����ʂ�,3_1_1,2022/4/6,11:00,167,199
�n����ʂ�,3_1_1,2022/4/6,12:00,286,224
�n����ʂ�,3_1_1,2022/4/6,13:00,371,212
�n����ʂ�,3_1_1,2022/4/6,14:00,256,169
�n����ʂ�,3_1_1,2022/4/6,15:00,253,133
�n����ʂ�,3_1_1,2022/4/6,16:00,284,140
�n����ʂ�,3_1_1,2022/4/6,17:00,251,132
�n����ʂ�,3_1_1,2022/4/6,18:00,128,100
�n����ʂ�,3_1_1,2022/4/6,19:00,58,44
�n����ʂ�,3_1_1,2022/4/6,20:00,43,27
�n����ʂ�,3_1_1,2022/4/6,21:00,23,16
�n����ʂ�,3_1_1,2022/4/6,22:00,10,7
�n����ʂ�,3_1_1,2022/4/6,23:00,3,6
�n����ʂ�,3_1_1,2022/4/7,0:00,3,4
�n����ʂ�,3_1_1,2022/4/7,1:00,0,0
�n����ʂ�,3_1_1,2022/4/7,2:00,0,4
�n����ʂ�,3_1_1,2022/4/7,3:00,1,6
�n����ʂ�,3_1_1,2022/4/7,4:00,3,8
�n����ʂ�,3_1_1,2022/4/7,5:00,12,18
�n����ʂ�,3_1_1,2022/4/7,6:00,36,33
�n����ʂ�,3_1_1,2022/4/7,7:00,43,103
�n����ʂ�,3_1_1,2022/4/7,8:00,81,170
�n����ʂ�,3_1_1,2022/4/7,9:00,114,109
�n����ʂ�,3_1_1,2022/4/7,10:00,131,133
�n����ʂ�,3_1_1,2022/4/7,11:00,141,262
�n����ʂ�,3_1_1,2022/4/7,12:00,252,239
�n����ʂ�,3_1_1,2022/4/7,13:00,218,136
�n����ʂ�,3_1_1,2022/4/7,14:00,201,123
�n����ʂ�,3_1_1,2022/4/7,15:00,176,138
�n����ʂ�,3_1_1,2022/4/7,16:00,219,133
�n����ʂ�,3_1_1,2022/4/7,17:00,245,109
�n����ʂ�,3_1_1,2022/4/7,18:00,139,88
�n����ʂ�,3_1_1,2022/4/7,19:00,55,51
�n����ʂ�,3_1_1,2022/4/7,20:00,26,25
�n����ʂ�,3_1_1,2022/4/7,21:00,18,9
�n����ʂ�,3_1_1,2022/4/7,22:00,8,1
�n����ʂ�,3_1_1,2022/4/7,23:00,2,0
�n����ʂ�,3_1_1,2022/4/8,0:00,2,4
�n����ʂ�,3_1_1,2022/4/8,1:00,1,1
�n����ʂ�,3_1_1,2022/4/8,2:00,1,7
�n����ʂ�,3_1_1,2022/4/8,3:00,1,7
�n����ʂ�,3_1_1,2022/4/8,4:00,6,2
�n����ʂ�,3_1_1,2022/4/8,5:00,16,11
�n����ʂ�,3_1_1,2022/4/8,6:00,35,54
�n����ʂ�,3_1_1,2022/4/8,7:00,77,395
�n����ʂ�,3_1_1,2022/4/8,8:00,96,390
�n����ʂ�,3_1_1,2022/4/8,9:00,135,101
�n����ʂ�,3_1_1,2022/4/8,10:00,135,172
�n����ʂ�,3_1_1,2022/4/8,11:00,188,173
�n����ʂ�,3_1_1,2022/4/8,12:00,197,225
�n����ʂ�,3_1_1,2022/4/8,13:00,244,144
�n����ʂ�,3_1_1,2022/4/8,14:00,231,165
�n����ʂ�,3_1_1,2022/4/8,15:00,330,138
�n����ʂ�,3_1_1,2022/4/8,16:00,323,160
�n����ʂ�,3_1_1,2022/4/8,17:00,286,108
�n����ʂ�,3_1_1,2022/4/8,18:00,286,134
�n����ʂ�,3_1_1,2022/4/8,19:00,76,76
�n����ʂ�,3_1_1,2022/4/8,20:00,41,44
�n����ʂ�,3_1_1,2022/4/8,21:00,18,14
�n����ʂ�,3_1_1,2022/4/8,22:00,19,5
�n����ʂ�,3_1_1,2022/4/8,23:00,8,4
�n����ʂ�,3_1_1,2022/4/9,0:00,5,4
�n����ʂ�,3_1_1,2022/4/9,1:00,14,2
�n����ʂ�,3_1_1,2022/4/9,2:00,10,5
�n����ʂ�,3_1_1,2022/4/9,3:00,3,7
�n����ʂ�,3_1_1,2022/4/9,4:00,4,6
�n����ʂ�,3_1_1,2022/4/9,5:00,17,12
�n����ʂ�,3_1_1,2022/4/9,6:00,30,33
�n����ʂ�,3_1_1,2022/4/9,7:00,52,75
�n����ʂ�,3_1_1,2022/4/9,8:00,84,123
�n����ʂ�,3_1_1,2022/4/9,9:00,112,156
�n����ʂ�,3_1_1,2022/4/9,10:00,171,216
�n����ʂ�,3_1_1,2022/4/9,11:00,284,339
�n����ʂ�,3_1_1,2022/4/9,12:00,342,400
�n����ʂ�,3_1_1,2022/4/9,13:00,366,298
�n����ʂ�,3_1_1,2022/4/9,14:00,430,342
�n����ʂ�,3_1_1,2022/4/9,15:00,407,291
�n����ʂ�,3_1_1,2022/4/9,16:00,299,240
�n����ʂ�,3_1_1,2022/4/9,17:00,264,152
�n����ʂ�,3_1_1,2022/4/9,18:00,131,125
�n����ʂ�,3_1_1,2022/4/9,19:00,72,81
�n����ʂ�,3_1_1,2022/4/9,20:00,40,42
�n����ʂ�,3_1_1,2022/4/9,21:00,26,19
�n����ʂ�,3_1_1,2022/4/9,22:00,4,10
�n����ʂ�,3_1_1,2022/4/9,23:00,9,3
�n����ʂ�,3_1_1,2022/4/10,0:00,4,3
�n����ʂ�,3_1_1,2022/4/10,1:00,3,2
�n����ʂ�,3_1_1,2022/4/10,2:00,5,4
�n����ʂ�,3_1_1,2022/4/10,3:00,1,4
�n����ʂ�,3_1_1,2022/4/10,4:00,0,3
�n����ʂ�,3_1_1,2022/4/10,5:00,11,12
�n����ʂ�,3_1_1,2022/4/10,6:00,29,26
�n����ʂ�,3_1_1,2022/4/10,7:00,39,45
�n����ʂ�,3_1_1,2022/4/10,8:00,66,90
�n����ʂ�,3_1_1,2022/4/10,9:00,105,122
�n����ʂ�,3_1_1,2022/4/10,10:00,209,275
�n����ʂ�,3_1_1,2022/4/10,11:00,310,358
�n����ʂ�,3_1_1,2022/4/10,12:00,312,400
�n����ʂ�,3_1_1,2022/4/10,13:00,393,370
�n����ʂ�,3_1_1,2022/4/10,14:00,454,418
�n����ʂ�,3_1_1,2022/4/10,15:00,361,347
�n����ʂ�,3_1_1,2022/4/10,16:00,281,255
�n����ʂ�,3_1_1,2022/4/10,17:00,215,148
�n����ʂ�,3_1_1,2022/4/10,18:00,108,87
�n����ʂ�,3_1_1,2022/4/10,19:00,43,63
�n����ʂ�,3_1_1,2022/4/10,20:00,16,24
�n����ʂ�,3_1_1,2022/4/10,21:00,6,18
�n����ʂ�,3_1_1,2022/4/10,22:00,10,6
�n����ʂ�,3_1_1,2022/4/10,23:00,6,2
�n����ʂ�,3_1_1,2022/4/11,0:00,2,2
�n����ʂ�,3_1_1,2022/4/11,1:00,1,1
�n����ʂ�,3_1_1,2022/4/11,2:00,0,3
�n����ʂ�,3_1_1,2022/4/11,3:00,0,0
�n����ʂ�,3_1_1,2022/4/11,4:00,1,1
�n����ʂ�,3_1_1,2022/4/11,5:00,13,16
�n����ʂ�,3_1_1,2022/4/11,6:00,40,44
�n����ʂ�,3_1_1,2022/4/11,7:00,59,507
�n����ʂ�,3_1_1,2022/4/11,8:00,97,325
�n����ʂ�,3_1_1,2022/4/11,9:00,157,101
�n����ʂ�,3_1_1,2022/4/11,10:00,154,129
�n����ʂ�,3_1_1,2022/4/11,11:00,187,157
�n����ʂ�,3_1_1,2022/4/11,12:00,221,173
�n����ʂ�,3_1_1,2022/4/11,13:00,198,183
�n����ʂ�,3_1_1,2022/4/11,14:00,212,152
�n����ʂ�,3_1_1,2022/4/11,15:00,221,147
�n����ʂ�,3_1_1,2022/4/11,16:00,249,116
�n����ʂ�,3_1_1,2022/4/11,17:00,249,100
�n����ʂ�,3_1_1,2022/4/11,18:00,292,83
�n����ʂ�,3_1_1,2022/4/11,19:00,53,45
�n����ʂ�,3_1_1,2022/4/11,20:00,30,20
�n����ʂ�,3_1_1,2022/4/11,21:00,19,12
�n����ʂ�,3_1_1,2022/4/11,22:00,7,20
�n����ʂ�,3_1_1,2022/4/11,23:00,5,2
�n����ʂ�,3_1_1,2022/4/12,0:00,2,1
�n����ʂ�,3_1_1,2022/4/12,1:00,1,0
�n����ʂ�,3_1_1,2022/4/12,2:00,1,6
�n����ʂ�,3_1_1,2022/4/12,3:00,1,3
�n����ʂ�,3_1_1,2022/4/12,4:00,6,4
�n����ʂ�,3_1_1,2022/4/12,5:00,16,21
�n����ʂ�,3_1_1,2022/4/12,6:00,40,56
�n����ʂ�,3_1_1,2022/4/12,7:00,85,427
�n����ʂ�,3_1_1,2022/4/12,8:00,109,283
�n����ʂ�,3_1_1,2022/4/12,9:00,160,121
�n����ʂ�,3_1_1,2022/4/12,10:00,123,128
�n����ʂ�,3_1_1,2022/4/12,11:00,163,127
�n����ʂ�,3_1_1,2022/4/12,12:00,212,190
�n����ʂ�,3_1_1,2022/4/12,13:00,158,148
�n����ʂ�,3_1_1,2022/4/12,14:00,176,125
�n����ʂ�,3_1_1,2022/4/12,15:00,150,104
�n����ʂ�,3_1_1,2022/4/12,16:00,215,112
�n����ʂ�,3_1_1,2022/4/12,17:00,284,114
�n����ʂ�,3_1_1,2022/4/12,18:00,298,99
�n����ʂ�,3_1_1,2022/4/12,19:00,53,49
�n����ʂ�,3_1_1,2022/4/12,20:00,40,37
�n����ʂ�,3_1_1,2022/4/12,21:00,28,7
�n����ʂ�,3_1_1,2022/4/12,22:00,7,6
�n����ʂ�,3_1_1,2022/4/12,23:00,3,1
�n����ʂ�,3_1_1,2022/4/13,0:00,0,2
�n����ʂ�,3_1_1,2022/4/13,1:00,0,1
�n����ʂ�,3_1_1,2022/4/13,2:00,1,8
�n����ʂ�,3_1_1,2022/4/13,3:00,2,6
�n����ʂ�,3_1_1,2022/4/13,4:00,5,5
�n����ʂ�,3_1_1,2022/4/13,5:00,14,14
�n����ʂ�,3_1_1,2022/4/13,6:00,46,50
�n����ʂ�,3_1_1,2022/4/13,7:00,74,384
�n����ʂ�,3_1_1,2022/4/13,8:00,91,277
�n����ʂ�,3_1_1,2022/4/13,9:00,130,83
�n����ʂ�,3_1_1,2022/4/13,10:00,134,111
�n����ʂ�,3_1_1,2022/4/13,11:00,140,147
�n����ʂ�,3_1_1,2022/4/13,12:00,188,185
�n����ʂ�,3_1_1,2022/4/13,13:00,167,148
�n����ʂ�,3_1_1,2022/4/13,14:00,157,111
�n����ʂ�,3_1_1,2022/4/13,15:00,104,101
�n����ʂ�,3_1_1,2022/4/13,16:00,400,110
�n����ʂ�,3_1_1,2022/4/13,17:00,261,94
�n����ʂ�,3_1_1,2022/4/13,18:00,125,96
�n����ʂ�,3_1_1,2022/4/13,19:00,69,55
�n����ʂ�,3_1_1,2022/4/13,20:00,34,25
�n����ʂ�,3_1_1,2022/4/13,21:00,21,11
�n����ʂ�,3_1_1,2022/4/13,22:00,10,4
�n����ʂ�,3_1_1,2022/4/13,23:00,4,4
�n����ʂ�,3_1_1,2022/4/14,0:00,4,0
�n����ʂ�,3_1_1,2022/4/14,1:00,5,0
�n����ʂ�,3_1_1,2022/4/14,2:00,4,3
�n����ʂ�,3_1_1,2022/4/14,3:00,1,8
�n����ʂ�,3_1_1,2022/4/14,4:00,4,4
�n����ʂ�,3_1_1,2022/4/14,5:00,23,16
�n����ʂ�,3_1_1,2022/4/14,6:00,26,30
�n����ʂ�,3_1_1,2022/4/14,7:00,52,166
�n����ʂ�,3_1_1,2022/4/14,8:00,54,163
�n����ʂ�,3_1_1,2022/4/14,9:00,104,103
�n����ʂ�,3_1_1,2022/4/14,10:00,83,74
�n����ʂ�,3_1_1,2022/4/14,11:00,79,77
�n����ʂ�,3_1_1,2022/4/14,12:00,96,120
�n����ʂ�,3_1_1,2022/4/14,13:00,95,74
�n����ʂ�,3_1_1,2022/4/14,14:00,104,80
�n����ʂ�,3_1_1,2022/4/14,15:00,88,78
�n����ʂ�,3_1_1,2022/4/14,16:00,137,101
�n����ʂ�,3_1_1,2022/4/14,17:00,205,62
�n����ʂ�,3_1_1,2022/4/14,18:00,142,74
�n����ʂ�,3_1_1,2022/4/14,19:00,40,37
�n����ʂ�,3_1_1,2022/4/14,20:00,34,26
�n����ʂ�,3_1_1,2022/4/14,21:00,17,11
�n����ʂ�,3_1_1,2022/4/14,22:00,7,3
�n����ʂ�,3_1_1,2022/4/14,23:00,3,2
�n����ʂ�,3_1_1,2022/4/15,0:00,3,1
�n����ʂ�,3_1_1,2022/4/15,1:00,2,0
�n����ʂ�,3_1_1,2022/4/15,2:00,2,2
�n����ʂ�,3_1_1,2022/4/15,3:00,1,10
�n����ʂ�,3_1_1,2022/4/15,4:00,1,3
�n����ʂ�,3_1_1,2022/4/15,5:00,17,16
�n����ʂ�,3_1_1,2022/4/15,6:00,46,47
�n����ʂ�,3_1_1,2022/4/15,7:00,86,416
�n����ʂ�,3_1_1,2022/4/15,8:00,115,363
�n����ʂ�,3_1_1,2022/4/15,9:00,164,110
�n����ʂ�,3_1_1,2022/4/15,10:00,222,169
�n����ʂ�,3_1_1,2022/4/15,11:00,254,207
�n����ʂ�,3_1_1,2022/4/15,12:00,273,257
�n����ʂ�,3_1_1,2022/4/15,13:00,245,196
�n����ʂ�,3_1_1,2022/4/15,14:00,197,185
�n����ʂ�,3_1_1,2022/4/15,15:00,219,108
�n����ʂ�,3_1_1,2022/4/15,16:00,235,151
�n����ʂ�,3_1_1,2022/4/15,17:00,243,125
�n����ʂ�,3_1_1,2022/4/15,18:00,292,112
�n����ʂ�,3_1_1,2022/4/15,19:00,52,58
�n����ʂ�,3_1_1,2022/4/15,20:00,35,40
�n����ʂ�,3_1_1,2022/4/15,21:00,23,16
�n����ʂ�,3_1_1,2022/4/15,22:00,6,9
�n����ʂ�,3_1_1,2022/4/15,23:00,4,11
�n����ʂ�,3_1_1,2022/4/16,0:00,4,4
�n����ʂ�,3_1_1,2022/4/16,1:00,5,0
�n����ʂ�,3_1_1,2022/4/16,2:00,0,5
�n����ʂ�,3_1_1,2022/4/16,3:00,3,4
�n����ʂ�,3_1_1,2022/4/16,4:00,0,1
�n����ʂ�,3_1_1,2022/4/16,5:00,9,18
�n����ʂ�,3_1_1,2022/4/16,6:00,27,32
�n����ʂ�,3_1_1,2022/4/16,7:00,46,103
�n����ʂ�,3_1_1,2022/4/16,8:00,78,110
�n����ʂ�,3_1_1,2022/4/16,9:00,104,101
�n����ʂ�,3_1_1,2022/4/16,10:00,155,154
�n����ʂ�,3_1_1,2022/4/16,11:00,192,197
�n����ʂ�,3_1_1,2022/4/16,12:00,247,335
�n����ʂ�,3_1_1,2022/4/16,13:00,263,232
�n����ʂ�,3_1_1,2022/4/16,14:00,357,308
�n����ʂ�,3_1_1,2022/4/16,15:00,331,195
�n����ʂ�,3_1_1,2022/4/16,16:00,259,221
�n����ʂ�,3_1_1,2022/4/16,17:00,238,174
�n����ʂ�,3_1_1,2022/4/16,18:00,150,147
�n����ʂ�,3_1_1,2022/4/16,19:00,54,89
�n����ʂ�,3_1_1,2022/4/16,20:00,22,28
�n����ʂ�,3_1_1,2022/4/16,21:00,25,30
�n����ʂ�,3_1_1,2022/4/16,22:00,15,12
�n����ʂ�,3_1_1,2022/4/16,23:00,7,9
�n����ʂ�,3_1_1,2022/4/17,0:00,2,0
�n����ʂ�,3_1_1,2022/4/17,1:00,0,1
�n����ʂ�,3_1_1,2022/4/17,2:00,1,1
�n����ʂ�,3_1_1,2022/4/17,3:00,2,3
�n����ʂ�,3_1_1,2022/4/17,4:00,0,5
�n����ʂ�,3_1_1,2022/4/17,5:00,16,10
�n����ʂ�,3_1_1,2022/4/17,6:00,28,19
�n����ʂ�,3_1_1,2022/4/17,7:00,46,83
�n����ʂ�,3_1_1,2022/4/17,8:00,52,66
�n����ʂ�,3_1_1,2022/4/17,9:00,82,100
�n����ʂ�,3_1_1,2022/4/17,10:00,161,195
�n����ʂ�,3_1_1,2022/4/17,11:00,217,290
�n����ʂ�,3_1_1,2022/4/17,12:00,329,325
�n����ʂ�,3_1_1,2022/4/17,13:00,357,268
�n����ʂ�,3_1_1,2022/4/17,14:00,344,273
�n����ʂ�,3_1_1,2022/4/17,15:00,308,227
�n����ʂ�,3_1_1,2022/4/17,16:00,322,247
�n����ʂ�,3_1_1,2022/4/17,17:00,189,122
�n����ʂ�,3_1_1,2022/4/17,18:00,115,100
�n����ʂ�,3_1_1,2022/4/17,19:00,39,49
�n����ʂ�,3_1_1,2022/4/17,20:00,13,27
�n����ʂ�,3_1_1,2022/4/17,21:00,15,14
�n����ʂ�,3_1_1,2022/4/17,22:00,5,4
�n����ʂ�,3_1_1,2022/4/17,23:00,6,6
�n����ʂ�,3_1_1,2022/4/18,0:00,3,1
�n����ʂ�,3_1_1,2022/4/18,1:00,1,1
�n����ʂ�,3_1_1,2022/4/18,2:00,1,3
�n����ʂ�,3_1_1,2022/4/18,3:00,1,5
�n����ʂ�,3_1_1,2022/4/18,4:00,1,4
�n����ʂ�,3_1_1,2022/4/18,5:00,17,17
�n����ʂ�,3_1_1,2022/4/18,6:00,39,56
�n����ʂ�,3_1_1,2022/4/18,7:00,90,453
�n����ʂ�,3_1_1,2022/4/18,8:00,129,366
�n����ʂ�,3_1_1,2022/4/18,9:00,185,105
�n����ʂ�,3_1_1,2022/4/18,10:00,148,146
�n����ʂ�,3_1_1,2022/4/18,11:00,162,169
�n����ʂ�,3_1_1,2022/4/18,12:00,217,198
�n����ʂ�,3_1_1,2022/4/18,13:00,202,171
�n����ʂ�,3_1_1,2022/4/18,14:00,164,124
�n����ʂ�,3_1_1,2022/4/18,15:00,246,138
�n����ʂ�,3_1_1,2022/4/18,16:00,237,138
�n����ʂ�,3_1_1,2022/4/18,17:00,289,108
�n����ʂ�,3_1_1,2022/4/18,18:00,304,111
�n����ʂ�,3_1_1,2022/4/18,19:00,50,48
�n����ʂ�,3_1_1,2022/4/18,20:00,10,26
�n����ʂ�,3_1_1,2022/4/18,21:00,20,14
�n����ʂ�,3_1_1,2022/4/18,22:00,11,7
�n����ʂ�,3_1_1,2022/4/18,23:00,7,5
�n����ʂ�,3_1_1,2022/4/19,0:00,2,0
�n����ʂ�,3_1_1,2022/4/19,1:00,0,0
�n����ʂ�,3_1_1,2022/4/19,2:00,1,2
�n����ʂ�,3_1_1,2022/4/19,3:00,3,7
�n����ʂ�,3_1_1,2022/4/19,4:00,3,4
�n����ʂ�,3_1_1,2022/4/19,5:00,26,21
�n����ʂ�,3_1_1,2022/4/19,6:00,40,52
�n����ʂ�,3_1_1,2022/4/19,7:00,78,488
�n����ʂ�,3_1_1,2022/4/19,8:00,112,359
�n����ʂ�,3_1_1,2022/4/19,9:00,156,135
�n����ʂ�,3_1_1,2022/4/19,10:00,150,148
�n����ʂ�,3_1_1,2022/4/19,11:00,216,161
�n����ʂ�,3_1_1,2022/4/19,12:00,208,184
�n����ʂ�,3_1_1,2022/4/19,13:00,147,129
�n����ʂ�,3_1_1,2022/4/19,14:00,189,109
�n����ʂ�,3_1_1,2022/4/19,15:00,147,114
�n����ʂ�,3_1_1,2022/4/19,16:00,243,125
�n����ʂ�,3_1_1,2022/4/19,17:00,302,124
�n����ʂ�,3_1_1,2022/4/19,18:00,373,103
�n����ʂ�,3_1_1,2022/4/19,19:00,56,59
�n����ʂ�,3_1_1,2022/4/19,20:00,19,23
�n����ʂ�,3_1_1,2022/4/19,21:00,29,13
�n����ʂ�,3_1_1,2022/4/19,22:00,12,5
�n����ʂ�,3_1_1,2022/4/19,23:00,1,3
�n����ʂ�,3_1_1,2022/4/20,0:00,0,1
�n����ʂ�,3_1_1,2022/4/20,1:00,0,2
�n����ʂ�,3_1_1,2022/4/20,2:00,0,3
�n����ʂ�,3_1_1,2022/4/20,3:00,1,7
�n����ʂ�,3_1_1,2022/4/20,4:00,6,2
�n����ʂ�,3_1_1,2022/4/20,5:00,24,27
�n����ʂ�,3_1_1,2022/4/20,6:00,40,66
�n����ʂ�,3_1_1,2022/4/20,7:00,93,489
�n����ʂ�,3_1_1,2022/4/20,8:00,118,386
�n����ʂ�,3_1_1,2022/4/20,9:00,112,97
�n����ʂ�,3_1_1,2022/4/20,10:00,142,130
�n����ʂ�,3_1_1,2022/4/20,11:00,158,130
�n����ʂ�,3_1_1,2022/4/20,12:00,200,211
�n����ʂ�,3_1_1,2022/4/20,13:00,196,126
�n����ʂ�,3_1_1,2022/4/20,14:00,160,146
�n����ʂ�,3_1_1,2022/4/20,15:00,205,108
�n����ʂ�,3_1_1,2022/4/20,16:00,468,105
�n����ʂ�,3_1_1,2022/4/20,17:00,251,140
�n����ʂ�,3_1_1,2022/4/20,18:00,174,109
�n����ʂ�,3_1_1,2022/4/20,19:00,48,52
�n����ʂ�,3_1_1,2022/4/20,20:00,17,22
�n����ʂ�,3_1_1,2022/4/20,21:00,31,13
�n����ʂ�,3_1_1,2022/4/20,22:00,14,7
�n����ʂ�,3_1_1,2022/4/20,23:00,5,2
�n����ʂ�,3_1_1,2022/4/21,0:00,4,2
�n����ʂ�,3_1_1,2022/4/21,1:00,1,1
�n����ʂ�,3_1_1,2022/4/21,2:00,1,2
�n����ʂ�,3_1_1,2022/4/21,3:00,1,6
�n����ʂ�,3_1_1,2022/4/21,4:00,6,4
�n����ʂ�,3_1_1,2022/4/21,5:00,18,19
�n����ʂ�,3_1_1,2022/4/21,6:00,31,39
�n����ʂ�,3_1_1,2022/4/21,7:00,76,322
�n����ʂ�,3_1_1,2022/4/21,8:00,104,280
�n����ʂ�,3_1_1,2022/4/21,9:00,148,107
�n����ʂ�,3_1_1,2022/4/21,10:00,161,131
�n����ʂ�,3_1_1,2022/4/21,11:00,122,149
�n����ʂ�,3_1_1,2022/4/21,12:00,181,142
�n����ʂ�,3_1_1,2022/4/21,13:00,192,130
�n����ʂ�,3_1_1,2022/4/21,14:00,113,100
�n����ʂ�,3_1_1,2022/4/21,15:00,110,80
�n����ʂ�,3_1_1,2022/4/21,16:00,138,71
�n����ʂ�,3_1_1,2022/4/21,17:00,212,86
�n����ʂ�,3_1_1,2022/4/21,18:00,211,96
�n����ʂ�,3_1_1,2022/4/21,19:00,39,33
�n����ʂ�,3_1_1,2022/4/21,20:00,13,13
�n����ʂ�,3_1_1,2022/4/21,21:00,17,7
�n����ʂ�,3_1_1,2022/4/21,22:00,3,4
�n����ʂ�,3_1_1,2022/4/21,23:00,7,2
�n����ʂ�,3_1_1,2022/4/22,0:00,3,2
�n����ʂ�,3_1_1,2022/4/22,1:00,1,0
�n����ʂ�,3_1_1,2022/4/22,2:00,2,2
�n����ʂ�,3_1_1,2022/4/22,3:00,2,7
�n����ʂ�,3_1_1,2022/4/22,4:00,7,0
�n����ʂ�,3_1_1,2022/4/22,5:00,21,26
�n����ʂ�,3_1_1,2022/4/22,6:00,39,34
�n����ʂ�,3_1_1,2022/4/22,7:00,77,274
�n����ʂ�,3_1_1,2022/4/22,8:00,104,280
�n����ʂ�,3_1_1,2022/4/22,9:00,164,115
�n����ʂ�,3_1_1,2022/4/22,10:00,201,249
�n����ʂ�,3_1_1,2022/4/22,11:00,295,212
�n����ʂ�,3_1_1,2022/4/22,12:00,388,330
�n����ʂ�,3_1_1,2022/4/22,13:00,304,237
�n����ʂ�,3_1_1,2022/4/22,14:00,159,121
�n����ʂ�,3_1_1,2022/4/22,15:00,252,141
�n����ʂ�,3_1_1,2022/4/22,16:00,227,170
�n����ʂ�,3_1_1,2022/4/22,17:00,271,140
�n����ʂ�,3_1_1,2022/4/22,18:00,335,134
�n����ʂ�,3_1_1,2022/4/22,19:00,52,82
�n����ʂ�,3_1_1,2022/4/22,20:00,14,37
�n����ʂ�,3_1_1,2022/4/22,21:00,29,31
�n����ʂ�,3_1_1,2022/4/22,22:00,20,6
�n����ʂ�,3_1_1,2022/4/22,23:00,13,4
�n����ʂ�,3_1_1,2022/4/23,0:00,6,4
�n����ʂ�,3_1_1,2022/4/23,1:00,6,2
�n����ʂ�,3_1_1,2022/4/23,2:00,2,2
�n����ʂ�,3_1_1,2022/4/23,3:00,1,7
�n����ʂ�,3_1_1,2022/4/23,4:00,6,2
�n����ʂ�,3_1_1,2022/4/23,5:00,18,18
�n����ʂ�,3_1_1,2022/4/23,6:00,33,33
�n����ʂ�,3_1_1,2022/4/23,7:00,52,73
�n����ʂ�,3_1_1,2022/4/23,8:00,93,87
�n����ʂ�,3_1_1,2022/4/23,9:00,114,149
�n����ʂ�,3_1_1,2022/4/23,10:00,231,248
�n����ʂ�,3_1_1,2022/4/23,11:00,230,234
�n����ʂ�,3_1_1,2022/4/23,12:00,279,312
�n����ʂ�,3_1_1,2022/4/23,13:00,288,345
�n����ʂ�,3_1_1,2022/4/23,14:00,350,250
�n����ʂ�,3_1_1,2022/4/23,15:00,291,274
�n����ʂ�,3_1_1,2022/4/23,16:00,256,226
�n����ʂ�,3_1_1,2022/4/23,17:00,189,143
�n����ʂ�,3_1_1,2022/4/23,18:00,119,101
�n����ʂ�,3_1_1,2022/4/23,19:00,49,64
�n����ʂ�,3_1_1,2022/4/23,20:00,31,26
�n����ʂ�,3_1_1,2022/4/23,21:00,31,16
�n����ʂ�,3_1_1,2022/4/23,22:00,22,9
�n����ʂ�,3_1_1,2022/4/23,23:00,22,7
�n����ʂ�,3_1_1,2022/4/24,0:00,9,4
�n����ʂ�,3_1_1,2022/4/24,1:00,6,2
�n����ʂ�,3_1_1,2022/4/24,2:00,3,2
�n����ʂ�,3_1_1,2022/4/24,3:00,2,6
�n����ʂ�,3_1_1,2022/4/24,4:00,2,3
�n����ʂ�,3_1_1,2022/4/24,5:00,21,16
�n����ʂ�,3_1_1,2022/4/24,6:00,19,14
�n����ʂ�,3_1_1,2022/4/24,7:00,21,22
�n����ʂ�,3_1_1,2022/4/24,8:00,71,79
�n����ʂ�,3_1_1,2022/4/24,9:00,87,94
�n����ʂ�,3_1_1,2022/4/24,10:00,133,227
�n����ʂ�,3_1_1,2022/4/24,11:00,190,269
�n����ʂ�,3_1_1,2022/4/24,12:00,235,299
�n����ʂ�,3_1_1,2022/4/24,13:00,310,346
�n����ʂ�,3_1_1,2022/4/24,14:00,337,314
�n����ʂ�,3_1_1,2022/4/24,15:00,254,229
�n����ʂ�,3_1_1,2022/4/24,16:00,179,157
�n����ʂ�,3_1_1,2022/4/24,17:00,153,105
�n����ʂ�,3_1_1,2022/4/24,18:00,90,67
�n����ʂ�,3_1_1,2022/4/24,19:00,57,34
�n����ʂ�,3_1_1,2022/4/24,20:00,17,15
�n����ʂ�,3_1_1,2022/4/24,21:00,7,6
�n����ʂ�,3_1_1,2022/4/24,22:00,6,7
�n����ʂ�,3_1_1,2022/4/24,23:00,0,3
�n����ʂ�,3_1_1,2022/4/25,0:00,2,3
�n����ʂ�,3_1_1,2022/4/25,1:00,0,0
�n����ʂ�,3_1_1,2022/4/25,2:00,1,4
�n����ʂ�,3_1_1,2022/4/25,3:00,0,6
�n����ʂ�,3_1_1,2022/4/25,4:00,2,4
�n����ʂ�,3_1_1,2022/4/25,5:00,24,20
�n����ʂ�,3_1_1,2022/4/25,6:00,35,42
�n����ʂ�,3_1_1,2022/4/25,7:00,89,337
�n����ʂ�,3_1_1,2022/4/25,8:00,110,355
�n����ʂ�,3_1_1,2022/4/25,9:00,163,122
�n����ʂ�,3_1_1,2022/4/25,10:00,193,168
�n����ʂ�,3_1_1,2022/4/25,11:00,215,148
�n����ʂ�,3_1_1,2022/4/25,12:00,263,241
�n����ʂ�,3_1_1,2022/4/25,13:00,237,153
�n����ʂ�,3_1_1,2022/4/25,14:00,173,180
�n����ʂ�,3_1_1,2022/4/25,15:00,300,128
�n����ʂ�,3_1_1,2022/4/25,16:00,220,138
�n����ʂ�,3_1_1,2022/4/25,17:00,299,154
�n����ʂ�,3_1_1,2022/4/25,18:00,273,125
�n����ʂ�,3_1_1,2022/4/25,19:00,69,63
�n����ʂ�,3_1_1,2022/4/25,20:00,27,32
�n����ʂ�,3_1_1,2022/4/25,21:00,14,14
�n����ʂ�,3_1_1,2022/4/25,22:00,15,14
�n����ʂ�,3_1_1,2022/4/25,23:00,4,1
�n����ʂ�,3_1_1,2022/4/26,0:00,1,1
�n����ʂ�,3_1_1,2022/4/26,1:00,2,0
�n����ʂ�,3_1_1,2022/4/26,2:00,0,4
�n����ʂ�,3_1_1,2022/4/26,3:00,3,7
�n����ʂ�,3_1_1,2022/4/26,4:00,5,5
�n����ʂ�,3_1_1,2022/4/26,5:00,26,24
�n����ʂ�,3_1_1,2022/4/26,6:00,34,49
�n����ʂ�,3_1_1,2022/4/26,7:00,59,174
�n����ʂ�,3_1_1,2022/4/26,8:00,80,216
�n����ʂ�,3_1_1,2022/4/26,9:00,131,88
�n����ʂ�,3_1_1,2022/4/26,10:00,134,114
�n����ʂ�,3_1_1,2022/4/26,11:00,137,107
�n����ʂ�,3_1_1,2022/4/26,12:00,190,175
�n����ʂ�,3_1_1,2022/4/26,13:00,134,124
�n����ʂ�,3_1_1,2022/4/26,14:00,132,111
�n����ʂ�,3_1_1,2022/4/26,15:00,110,96
�n����ʂ�,3_1_1,2022/4/26,16:00,147,90
�n����ʂ�,3_1_1,2022/4/26,17:00,196,82
�n����ʂ�,3_1_1,2022/4/26,18:00,184,75
�n����ʂ�,3_1_1,2022/4/26,19:00,43,28
�n����ʂ�,3_1_1,2022/4/26,20:00,16,8
�n����ʂ�,3_1_1,2022/4/26,21:00,10,15
�n����ʂ�,3_1_1,2022/4/26,22:00,10,3
�n����ʂ�,3_1_1,2022/4/26,23:00,5,3
�n����ʂ�,3_1_1,2022/4/27,0:00,1,0
�n����ʂ�,3_1_1,2022/4/27,1:00,0,1
�n����ʂ�,3_1_1,2022/4/27,2:00,1,2
�n����ʂ�,3_1_1,2022/4/27,3:00,4,5
�n����ʂ�,3_1_1,2022/4/27,4:00,6,4
�n����ʂ�,3_1_1,2022/4/27,5:00,23,21
�n����ʂ�,3_1_1,2022/4/27,6:00,34,58
�n����ʂ�,3_1_1,2022/4/27,7:00,67,372
�n����ʂ�,3_1_1,2022/4/27,8:00,119,342
�n����ʂ�,3_1_1,2022/4/27,9:00,159,113
�n����ʂ�,3_1_1,2022/4/27,10:00,157,135
�n����ʂ�,3_1_1,2022/4/27,11:00,266,157
�n����ʂ�,3_1_1,2022/4/27,12:00,251,258
�n����ʂ�,3_1_1,2022/4/27,13:00,212,224